This is the latest recevied weather packets stored in our database for station/object VE8SKI. If no packets are shown the sender has not sent any weather packets the latest 10 day(s).
| Time | Temp. | Humidity | Pressure | Rain* | Wind** | Luminosity | Snow |
|---|---|---|---|---|---|---|---|
| 1777924390 | 3.33° C | 63% | 1023.9 hPa | 0 mm | 1.79 m/s, 336° | - | - |
| 1777924090 | 3.33° C | 65% | 1023.9 hPa | 0 mm | 0 m/s | - | - |
| 1777923791 | 3.33° C | 65% | 1023.9 hPa | 0 mm | 0.89 m/s, 23° | - | - |
| 1777923491 | 2.78° C | 64% | 1024 hPa | 0 mm | 1.79 m/s, 167° | - | - |
| 1777923191 | 3.89° C | 63% | 1024 hPa | 0 mm | 0.89 m/s, 322° | - | - |
| 1777922892 | 3.33° C | 64% | 1024.1 hPa | 0 mm | 1.34 m/s, 316° | - | - |
| 1777922589 | 3.33° C | 63% | 1024 hPa | 0 mm | 1.34 m/s, 201° | - | - |
| 1777922290 | 3.33° C | 65% | 1024.1 hPa | 0 mm | 0.45 m/s, 135° | - | - |
| 1777921990 | 3.33° C | 64% | 1024.2 hPa | 0 mm | 0.89 m/s, 249° | - | - |
| 1777921691 | 3.33° C | 63% | 1024.2 hPa | 0 mm | 0.89 m/s, 233° | - | - |
| 1777921391 | 2.78° C | 64% | 1024.2 hPa | 0 mm | 0.45 m/s, 193° | - | - |
| 1777921092 | 2.78° C | 65% | 1024.2 hPa | 0 mm | 0.89 m/s, 194° | - | - |
| 1777920789 | 2.22° C | 66% | 1024.3 hPa | 0 mm | 1.34 m/s, 211° | - | - |
| 1777920490 | 2.22° C | 67% | 1024.3 hPa | 0 mm | 0.89 m/s, 224° | - | - |
| 1777920190 | 2.22° C | 66% | 1024.3 hPa | 0 mm | 0.45 m/s, 260° | - | - |
| 1777919890 | 2.22° C | 66% | 1024.4 hPa | 0 mm | 0 m/s | - | - |
| 1777919591 | 2.22° C | 68% | 1024.5 hPa | 0 mm | 0 m/s | - | - |
| 1777919291 | 1.67° C | 69% | 1024.5 hPa | 0 mm | 0 m/s | - | - |
| 1777918989 | 1.67° C | 69% | 1024.6 hPa | 0 mm | 0.89 m/s, 3° | - | - |
| 1777918689 | 1.67° C | 71% | 1024.7 hPa | 0 mm | 0.45 m/s, 1° | - | - |
| 1777918390 | 1.11° C | 71% | 1024.7 hPa | 0 mm | 0.89 m/s, 172° | - | - |
| 1777918090 | 0.56° C | 72% | 1024.7 hPa | 0 mm | 1.34 m/s, 238° | - | - |
| 1777917791 | 0.56° C | 71% | 1024.8 hPa | 0 mm | 0.45 m/s, 45° | - | - |
| 1777917491 | 0.56° C | 71% | 1024.8 hPa | 0 mm | 1.34 m/s, 91° | - | - |
| 1777917189 | 1.11° C | 71% | 1024.9 hPa | 0 mm | 0.89 m/s, 83° | - | - |
* Rain latest hour (hover to see other rain measurements)
** Current wind speed in m/s (hover to see current wind gust speed)